Time,TemperatureF,DewpointF,PressureIn,WindDirection,WindDirectionDegrees,WindSpeedMPH,WindSpeedGustMPH,Humidity,HourlyPrecipIn,Conditions,Clouds,dailyrainin,SoftwareType,DateUTC
2013-03-01 00:02:00,19.0,-99.9,-100.00,North,0,5.0,10.0,-999,0.00,,,0.00,,2013-03-01 06:02:00,
2013-03-01 00:12:00,18.0,-99.9,-100.00,NNE,23,3.0,8.0,-999,0.00,,,0.00,,2013-03-01 06:12:00,
2013-03-01 00:22:00,18.0,-99.9,-100.00,NNE,23,3.0,8.0,-999,0.00,,,0.00,,2013-03-01 06:22:00,
2013-03-01 00:33:00,19.0,-99.9,-100.00,North,0,3.0,6.0,-999,0.00,,,0.00,,2013-03-01 06:33:00,
2013-03-01 00:43:00,19.0,-99.9,-100.00,North,0,3.0,6.0,-999,0.00,,,0.00,,2013-03-01 06:43:00,
2013-03-01 00:53:00,19.0,-99.9,-100.00,North,0,3.0,10.0,-999,0.00,,,0.00,,2013-03-01 06:53:00,
2013-03-01 01:02:00,19.0,-99.9,-100.00,North,0,2.0,7.0,-999,0.00,,,0.00,,2013-03-01 07:02:00,
2013-03-01 01:12:00,19.0,-99.9,-100.00,North,0,2.0,7.0,-999,0.00,,,0.00,,2013-03-01 07:12:00,
2013-03-01 01:22:00,18.0,-99.9,-100.00,North,0,3.0,8.0,-999,0.00,,,0.00,,2013-03-01 07:22:00,
2013-03-01 01:33:00,18.0,-99.9,-100.00,North,0,3.0,8.0,-999,0.00,,,0.00,,2013-03-01 07:33:00,
2013-03-01 01:43:00,18.0,-99.9,-100.00,North,0,3.0,8.0,-999,0.00,,,0.00,,2013-03-01 07:43:00,
2013-03-01 01:52:00,18.0,-99.9,-100.00,NNE,23,3.0,8.0,-999,0.00,,,0.00,,2013-03-01 07:52:00,
2013-03-01 02:02:00,18.0,-99.9,-100.00,North,0,6.0,9.0,-999,0.00,,,0.00,,2013-03-01 08:02:00,
2013-03-01 02:12:00,18.0,-99.9,-100.00,North,0,6.0,9.0,-999,0.00,,,0.00,,2013-03-01 08:12:00,
2013-03-01 02:22:00,19.0,-99.9,-100.00,NNE,23,6.0,12.0,-999,0.00,,,0.00,,2013-03-01 08:22:00,
2013-03-01 02:33:00,19.0,-99.9,-100.00,North,0,5.0,12.0,-999,0.00,,,0.00,,2013-03-01 08:33:00,
2013-03-01 02:43:00,19.0,-99.9,-100.00,North,0,5.0,12.0,-999,0.00,,,0.00,,2013-03-01 08:43:00,
2013-03-01 02:53:00,19.0,-99.9,-100.00,NNE,23,3.0,9.0,-999,0.00,,,0.00,,2013-03-01 08:53:00,
2013-03-01 03:03:00,19.0,-99.9,-100.00,North,0,3.0,8.0,-999,0.00,,,0.00,,2013-03-01 09:03:00,
2013-03-01 03:12:00,19.0,-99.9,-100.00,North,0,3.0,8.0,-999,0.00,,,0.00,,2013-03-01 09:12:00,
2013-03-01 03:22:00,19.0,-99.9,-100.00,NNE,23,3.0,10.0,-999,0.00,,,0.00,,2013-03-01 09:22:00,
2013-03-01 03:32:00,19.0,-99.9,-100.00,North,0,5.0,9.0,-999,0.00,,,0.00,,2013-03-01 09:32:00,
2013-03-01 03:43:00,19.0,-99.9,-100.00,North,0,5.0,9.0,-999,0.00,,,0.00,,2013-03-01 09:43:00,
2013-03-01 03:53:00,20.0,-99.9,-100.00,North,0,6.0,12.0,-999,0.00,,,0.00,,2013-03-01 09:53:00,
2013-03-01 04:02:00,19.0,-99.9,-100.00,NNE,23,6.0,14.0,-999,0.00,,,0.00,,2013-03-01 10:02:00,
2013-03-01 04:12:00,19.0,-99.9,-100.00,NNE,23,6.0,14.0,-999,0.00,,,0.00,,2013-03-01 10:12:00,
2013-03-01 04:22:00,19.0,-99.9,-100.00,North,0,5.0,13.0,-999,0.00,,,0.00,,2013-03-01 10:22:00,
2013-03-01 04:32:00,18.0,-99.9,-100.00,North,0,2.0,12.0,-999,0.00,,,0.00,,2013-03-01 10:32:00,
2013-03-01 04:43:00,18.0,-99.9,-100.00,North,0,2.0,12.0,-999,0.00,,,0.00,,2013-03-01 10:43:00,
2013-03-01 04:53:00,18.0,-99.9,-100.00,NNE,23,5.0,9.0,-999,0.00,,,0.00,,2013-03-01 10:53:00,
2013-03-01 05:02:00,18.0,-99.9,-100.00,NNE,23,8.0,13.0,-999,0.00,,,0.00,,2013-03-01 11:02:00,
2013-03-01 05:12:00,18.0,-99.9,-100.00,NNE,23,8.0,13.0,-999,0.00,,,0.00,,2013-03-01 11:12:00,
2013-03-01 05:23:00,17.0,-99.9,-100.00,NNE,23,5.0,16.0,-999,0.00,,,0.00,,2013-03-01 11:23:00,
2013-03-01 05:32:00,17.0,-99.9,-100.00,NNE,23,9.0,17.0,-999,0.00,,,0.00,,2013-03-01 11:32:00,
2013-03-01 05:42:00,17.0,-99.9,-100.00,NNE,23,9.0,17.0,-999,0.00,,,0.00,,2013-03-01 11:42:00,
2013-03-01 05:53:00,17.0,-99.9,-100.00,NE,45,7.0,14.0,-999,0.00,,,0.00,,2013-03-01 11:53:00,
2013-03-01 06:02:00,17.0,-99.9,-100.00,NNE,23,5.0,15.0,-999,0.00,,,0.00,,2013-03-01 12:02:00,
2013-03-01 06:11:00,17.0,-99.9,-100.00,NNE,23,5.0,15.0,-999,0.00,,,0.00,,2013-03-01 12:11:00,
2013-03-01 06:22:00,17.0,-99.9,-100.00,NE,45,5.0,17.0,-999,0.00,,,0.00,,2013-03-01 12:22:00,
2013-03-01 06:33:00,16.0,-99.9,-100.00,NNE,23,6.0,17.0,-999,0.00,,,0.00,,2013-03-01 12:33:00,
2013-03-01 06:42:00,16.0,-99.9,-100.00,NNE,23,6.0,17.0,-999,0.00,,,0.00,,2013-03-01 12:42:00,
2013-03-01 06:52:00,16.0,-99.9,-100.00,NNE,23,7.0,18.0,-999,0.00,,,0.00,,2013-03-01 12:52:00,
2013-03-01 07:01:00,16.0,-99.9,-100.00,NNE,23,2.0,14.0,-999,0.00,,,0.00,,2013-03-01 13:01:00,
2013-03-01 07:12:00,16.0,-99.9,-100.00,NNE,23,3.0,15.0,-999,0.00,,,0.00,,2013-03-01 13:12:00,
2013-03-01 07:22:00,16.0,-99.9,-100.00,NNE,23,3.0,15.0,-999,0.00,,,0.00,,2013-03-01 13:22:00,
2013-03-01 07:32:00,17.0,-99.9,-100.00,NNE,23,6.0,15.0,-999,0.00,,,0.00,,2013-03-01 13:32:00,
2013-03-01 07:42:00,17.0,-99.9,-100.00,NNE,23,6.0,15.0,-999,0.00,,,0.00,,2013-03-01 13:42:00,
2013-03-01 07:52:00,17.0,-99.9,-100.00,NE,45,6.0,13.0,-999,0.00,,,0.00,,2013-03-01 13:52:00,
2013-03-01 08:02:00,17.0,-99.9,-100.00,NNE,23,8.0,20.0,-999,0.00,,,0.00,,2013-03-01 14:02:00,
2013-03-01 08:12:00,17.0,-99.9,-100.00,NNE,23,8.0,20.0,-999,0.00,,,0.00,,2013-03-01 14:12:00,
2013-03-01 08:22:00,17.0,-99.9,-100.00,NNE,23,8.0,15.0,-999,0.00,,,0.00,,2013-03-01 14:22:00,
2013-03-01 08:32:00,18.0,-99.9,-100.00,NNE,23,6.0,17.0,-999,0.00,,,0.00,,2013-03-01 14:32:00,
2013-03-01 08:42:00,18.0,-99.9,-100.00,NNE,23,6.0,17.0,-999,0.00,,,0.00,,2013-03-01 14:42:00,
2013-03-01 08:52:00,18.0,-99.9,-100.00,NNE,23,6.0,14.0,-999,0.00,,,0.00,,2013-03-01 14:52:00,
2013-03-01 09:02:00,18.0,-99.9,-100.00,NNE,23,7.0,13.0,-999,0.00,,,0.00,,2013-03-01 15:02:00,
2013-03-01 09:11:00,19.0,-99.9,-100.00,NNE,23,5.0,10.0,-999,0.00,,,0.00,,2013-03-01 15:11:00,
2013-03-01 09:22:00,19.0,-99.9,-100.00,NNE,23,5.0,10.0,-999,0.00,,,0.00,,2013-03-01 15:22:00,
2013-03-01 09:32:00,20.0,-99.9,-100.00,NNE,23,5.0,10.0,-999,0.00,,,0.00,,2013-03-01 15:32:00,
2013-03-01 09:42:00,20.0,-99.9,-100.00,NNE,23,5.0,10.0,-999,0.00,,,0.00,,2013-03-01 15:42:00,
2013-03-01 09:52:00,20.0,-99.9,-100.00,NE,45,6.0,12.0,-999,0.00,,,0.00,,2013-03-01 15:52:00,
2013-03-01 10:01:00,20.0,-99.9,-100.00,North,0,7.0,16.0,-999,0.00,,,0.00,,2013-03-01 16:01:00,
2013-03-01 10:11:00,20.0,-99.9,-100.00,North,0,7.0,16.0,-999,0.00,,,0.00,,2013-03-01 16:11:00,
2013-03-01 10:22:00,21.0,-99.9,-100.00,NNE,23,5.0,12.0,-999,0.00,,,0.00,,2013-03-01 16:22:00,
2013-03-01 10:32:00,21.0,-99.9,-100.00,NE,45,3.0,12.0,-999,0.00,,,0.00,,2013-03-01 16:32:00,
2013-03-01 10:42:00,21.0,-99.9,-100.00,NE,45,3.0,12.0,-999,0.00,,,0.00,,2013-03-01 16:42:00,
2013-03-01 10:52:00,22.0,-99.9,-100.00,North,0,6.0,14.0,-999,0.00,,,0.00,,2013-03-01 16:52:00,
2013-03-01 11:01:00,22.0,-99.9,-100.00,NNE,23,6.0,12.0,-999,0.00,,,0.00,,2013-03-01 17:01:00,
2013-03-01 11:11:00,22.0,-99.9,-100.00,NNE,23,6.0,12.0,-999,0.00,,,0.00,,2013-03-01 17:11:00,
2013-03-01 11:21:00,23.0,-99.9,-100.00,NNE,23,7.0,12.0,-999,0.00,,,0.00,,2013-03-01 17:21:00,
2013-03-01 11:32:00,23.0,-99.9,-100.00,NE,45,7.0,13.0,-999,0.00,,,0.00,,2013-03-01 17:32:00,
2013-03-01 11:42:00,24.0,-99.9,-100.00,NNE,23,5.0,13.0,-999,0.00,,,0.00,,2013-03-01 17:42:00,
2013-03-01 11:52:00,24.0,-99.9,-100.00,NNE,23,5.0,13.0,-999,0.00,,,0.00,,2013-03-01 17:52:00,
2013-03-01 12:02:00,25.0,-99.9,-100.00,NNE,23,7.0,12.0,-999,0.00,,,0.00,,2013-03-01 18:02:00,
2013-03-01 12:12:00,25.0,-99.9,-100.00,NNE,23,7.0,12.0,-999,0.00,,,0.00,,2013-03-01 18:12:00,
2013-03-01 12:22:00,24.0,-99.9,-100.00,NE,45,8.0,14.0,-999,0.00,,,0.00,,2013-03-01 18:22:00,
2013-03-01 12:32:00,25.0,-99.9,-100.00,NNE,23,5.0,10.0,-999,0.00,,,0.00,,2013-03-01 18:32:00,
2013-03-01 12:42:00,26.0,-99.9,-100.00,NNE,23,5.0,12.0,-999,0.00,,,0.00,,2013-03-01 18:42:00,
2013-03-01 12:52:00,26.0,-99.9,-100.00,NNE,23,5.0,12.0,-999,0.00,,,0.00,,2013-03-01 18:52:00,
2013-03-01 13:02:00,25.0,-99.9,-100.00,North,0,7.0,12.0,-999,0.00,,,0.00,,2013-03-01 19:02:00,
2013-03-01 13:11:00,25.0,-99.9,-100.00,North,0,7.0,12.0,-999,0.00,,,0.00,,2013-03-01 19:11:00,
2013-03-01 13:22:00,26.0,-99.9,-100.00,North,0,7.0,12.0,-999,0.00,,,0.00,,2013-03-01 19:22:00,
2013-03-01 13:32:00,26.0,-99.9,-100.00,North,0,6.0,13.0,-999,0.00,,,0.00,,2013-03-01 19:32:00,
2013-03-01 13:42:00,26.0,-99.9,-100.00,North,0,6.0,13.0,-999,0.00,,,0.00,,2013-03-01 19:42:00,
2013-03-01 13:52:00,27.0,-99.9,-100.00,North,0,3.0,14.0,-999,0.00,,,0.00,,2013-03-01 19:52:00,
2013-03-01 14:01:00,28.0,-99.9,-100.00,North,0,5.0,12.0,-999,0.00,,,0.00,,2013-03-01 20:01:00,
2013-03-01 14:11:00,28.0,-99.9,-100.00,North,0,5.0,12.0,-999,0.00,,,0.00,,2013-03-01 20:11:00,
2013-03-01 14:22:00,28.0,-99.9,-100.00,North,0,3.0,10.0,-999,0.00,,,0.00,,2013-03-01 20:22:00,
2013-03-01 14:32:00,29.0,-99.9,-100.00,NNE,23,5.0,9.0,-999,0.00,,,0.00,,2013-03-01 20:32:00,
2013-03-01 14:42:00,29.0,-99.9,-100.00,NNE,23,5.0,9.0,-999,0.00,,,0.00,,2013-03-01 20:42:00,
2013-03-01 14:52:00,28.0,-99.9,-100.00,North,0,2.0,13.0,-999,0.00,,,0.00,,2013-03-01 20:52:00,
2013-03-01 15:02:00,28.0,-99.9,-100.00,North,0,9.0,12.0,-999,0.00,,,0.00,,2013-03-01 21:02:00,
2013-03-01 15:11:00,27.0,-99.9,-100.00,North,0,2.0,13.0,-999,0.00,,,0.00,,2013-03-01 21:11:00,
2013-03-01 15:22:00,27.0,-99.9,-100.00,North,0,2.0,13.0,-999,0.00,,,0.00,,2013-03-01 21:22:00,
2013-03-01 15:32:00,27.0,-99.9,-100.00,North,0,2.0,12.0,-999,0.00,,,0.00,,2013-03-01 21:32:00,
2013-03-01 15:42:00,27.0,-99.9,-100.00,NNE,23,5.0,10.0,-999,0.00,,,0.00,,2013-03-01 21:42:00,
2013-03-01 15:52:00,27.0,-99.9,-100.00,NNE,23,5.0,10.0,-999,0.00,,,0.00,,2013-03-01 21:52:00,
2013-03-01 16:01:00,26.0,-99.9,-100.00,North,0,5.0,12.0,-999,0.00,,,0.00,,2013-03-01 22:01:00,
2013-03-01 16:12:00,26.0,-99.9,-100.00,North,0,5.0,12.0,-999,0.00,,,0.00,,2013-03-01 22:12:00,
2013-03-01 16:22:00,26.0,-99.9,-100.00,North,0,5.0,12.0,-999,0.00,,,0.00,,2013-03-01 22:22:00,
2013-03-01 16:32:00,25.0,-99.9,-100.00,NNE,23,5.0,12.0,-999,0.00,,,0.00,,2013-03-01 22:32:00,
2013-03-01 16:42:00,25.0,-99.9,-100.00,NNE,23,5.0,12.0,-999,0.00,,,0.00,,2013-03-01 22:42:00,
2013-03-01 16:52:00,24.0,-99.9,-100.00,NNE,23,3.0,13.0,-999,0.00,,,0.00,,2013-03-01 22:52:00,
2013-03-01 17:01:00,24.0,-99.9,-100.00,NNE,23,6.0,12.0,-999,0.00,,,0.00,,2013-03-01 23:01:00,
2013-03-01 17:11:00,24.0,-99.9,-100.00,NNE,23,6.0,12.0,-999,0.00,,,0.00,,2013-03-01 23:11:00,
2013-03-01 17:21:00,23.0,-99.9,-100.00,NNE,23,5.0,9.0,-999,0.00,,,0.00,,2013-03-01 23:21:00,
2013-03-01 17:32:00,23.0,-99.9,-100.00,North,0,2.0,12.0,-999,0.00,,,0.00,,2013-03-01 23:32:00,
2013-03-01 17:42:00,23.0,-99.9,-100.00,North,0,2.0,12.0,-999,0.00,,,0.00,,2013-03-01 23:42:00,
2013-03-01 17:52:00,22.0,-99.9,-100.00,NNE,23,6.0,10.0,-999,0.00,,,0.00,,2013-03-01 23:52:00,
2013-03-01 18:02:00,21.0,-99.9,-100.00,NNE,23,5.0,12.0,-999,0.00,,,0.00,,2013-03-02 00:02:00,
2013-03-01 18:12:00,21.0,-99.9,-100.00,NNE,23,5.0,12.0,-999,0.00,,,0.00,,2013-03-02 00:12:00,
2013-03-01 18:22:00,20.0,-99.9,-100.00,NNE,23,3.0,8.0,-999,0.00,,,0.00,,2013-03-02 00:22:00,
2013-03-01 18:32:00,19.0,-99.9,-100.00,North,0,3.0,9.0,-999,0.00,,,0.00,,2013-03-02 00:32:00,
2013-03-01 18:42:00,19.0,-99.9,-100.00,North,0,3.0,9.0,-999,0.00,,,0.00,,2013-03-02 00:42:00,
2013-03-01 18:52:00,19.0,-99.9,-100.00,North,0,2.0,12.0,-999,0.00,,,0.00,,2013-03-02 00:52:00,
2013-03-01 19:01:00,18.0,-99.9,-100.00,NNE,23,1.0,9.0,-999,0.00,,,0.00,,2013-03-02 01:01:00,
2013-03-01 19:11:00,18.0,-99.9,-100.00,NNE,23,1.0,9.0,-999,0.00,,,0.00,,2013-03-02 01:11:00,
2013-03-01 19:21:00,18.0,-99.9,-100.00,NNE,23,2.0,7.0,-999,0.00,,,0.00,,2013-03-02 01:21:00,
2013-03-01 19:32:00,17.0,-99.9,-100.00,NNE,23,2.0,6.0,-999,0.00,,,0.00,,2013-03-02 01:32:00,
2013-03-01 19:42:00,17.0,-99.9,-100.00,NNE,23,2.0,6.0,-999,0.00,,,0.00,,2013-03-02 01:42:00,
2013-03-01 19:52:00,17.0,-99.9,-100.00,NNE,23,3.0,12.0,-999,0.00,,,0.00,,2013-03-02 01:52:00,
2013-03-01 20:01:00,16.0,-99.9,-100.00,North,0,3.0,6.0,-999,0.00,,,0.00,,2013-03-02 02:01:00,
2013-03-01 20:11:00,16.0,-99.9,-100.00,North,0,3.0,6.0,-999,0.00,,,0.00,,2013-03-02 02:11:00,
2013-03-01 20:22:00,16.0,-99.9,-100.00,NNE,23,5.0,8.0,-999,0.00,,,0.00,,2013-03-02 02:22:00,
2013-03-01 20:32:00,15.0,-99.9,-100.00,NE,45,5.0,15.0,-999,0.00,,,0.00,,2013-03-02 02:32:00,
2013-03-01 20:42:00,15.0,-99.9,-100.00,NE,45,5.0,15.0,-999,0.00,,,0.00,,2013-03-02 02:42:00,
2013-03-01 20:53:00,15.0,-99.9,-100.00,NNE,23,5.0,8.0,-999,0.00,,,0.00,,2013-03-02 02:53:00,
2013-03-01 21:02:00,14.0,-99.9,-100.00,NNE,23,3.0,12.0,-999,0.00,,,0.00,,2013-03-02 03:02:00,
2013-03-01 21:11:00,14.0,-99.9,-100.00,NNE,23,3.0,12.0,-999,0.00,,,0.00,,2013-03-02 03:11:00,
2013-03-01 21:22:00,14.0,-99.9,-100.00,North,0,5.0,9.0,-999,0.00,,,0.00,,2013-03-02 03:22:00,
2013-03-01 21:32:00,13.0,-99.9,-100.00,NNE,23,1.0,7.0,-999,0.00,,,0.00,,2013-03-02 03:32:00,
2013-03-01 21:42:00,13.0,-99.9,-100.00,NNE,23,1.0,7.0,-999,0.00,,,0.00,,2013-03-02 03:42:00,
2013-03-01 21:53:00,13.0,-99.9,-100.00,North,0,1.0,6.0,-999,0.00,,,0.00,,2013-03-02 03:53:00,
2013-03-01 22:02:00,13.0,-99.9,-100.00,North,0,2.0,6.0,-999,0.00,,,0.00,,2013-03-02 04:02:00,
2013-03-01 22:12:00,12.0,-99.9,-100.00,North,0,1.0,3.0,-999,0.00,,,0.00,,2013-03-02 04:12:00,
2013-03-01 22:22:00,12.0,-99.9,-100.00,North,0,1.0,3.0,-999,0.00,,,0.00,,2013-03-02 04:22:00,
2013-03-01 22:32:00,11.0,-99.9,-100.00,NNE,23,0.0,1.0,-999,0.00,,,0.00,,2013-03-02 04:32:00,
2013-03-01 22:42:00,11.0,-99.9,-100.00,NNE,23,0.0,1.0,-999,0.00,,,0.00,,2013-03-02 04:42:00,
2013-03-01 22:52:00,11.0,-99.9,-100.00,North,0,0.0,1.0,-999,0.00,,,0.00,,2013-03-02 04:52:00,
2013-03-01 23:02:00,11.0,-99.9,-100.00,North,0,0.0,1.0,-999,0.00,,,0.00,,2013-03-02 05:02:00,
2013-03-01 23:12:00,11.0,-99.9,-100.00,North,0,0.0,1.0,-999,0.00,,,0.00,,2013-03-02 05:12:00,
2013-03-01 23:23:00,10.0,-99.9,-100.00,NW,315,0.0,2.0,-999,0.00,,,0.00,,2013-03-02 05:23:00,
2013-03-01 23:32:00,9.0,-99.9,-100.00,NW,315,0.0,1.0,-999,0.00,,,0.00,,2013-03-02 05:32:00,
2013-03-01 23:42:00,9.0,-99.9,-100.00,NW,315,0.0,1.0,-999,0.00,,,0.00,,2013-03-02 05:42:00,
2013-03-01 23:52:00,9.0,-99.9,-100.00,NW,315,0.0,1.0,-999,0.00,,,0.00,,2013-03-02 05:52:00,